QPF
0.00 0.00 0.00 0.00 0.00 0.00 0.00 0.00 0.00 0.00 0.00 0.00 0.00 0.00 0.00 0.00 0.00 0.00 0.00 0.00 0.00 0.00 0.00 0.00 0.01 0.01 0.01 0.02 0.02 0.02 0.01 0.01 0.01 0.01 0.01 0.01 0.01 0.01 0.02 0.03 0.04 0.04 0.04 0.06 0.07 0.07 0.05 0.04 0.03
0.00 0.00 0.00 0.00 0.00 0.00 0.00 0.00 0.00 0.00 0.00 0.00 0.00 0.00 0.00 0.00 0.00 0.00 0.00 0.00 0.00 0.00 0.00 0.00 0.01 0.01 0.01 0.02 0.02 0.03 0.02 0.01 0.01 0.01 0.01 0.01 0.01 0.01 0.02 0.03 0.03 0.04 0.05 0.05 0.05 0.05 0.05 0.04 0.03
0.00 0.00 0.00 0.00 0.00 0.00 0.00 0.00 0.00 0.00 0.00 0.00 0.00 0.00 0.00 0.00 0.00 0.00 0.00 0.00 0.00 0.00 0.00 0.00 0.01 0.01 0.01 0.02 0.02 0.02 0.03 0.02 0.02 0.01 0.01 0.02 0.02 0.02 0.02 0.02 0.03 0.03 0.04 0.04 0.05 0.04 0.05 0.05 0.04
0.00 0.00 0.00 0.00 0.00 0.00 0.00 0.00 0.00 0.00 0.00 0.00 0.00 0.00 0.00 0.00 0.00 0.00 0.00 0.00 0.00 0.00 0.00 0.00 0.01 0.01 0.01 0.01 0.02 0.02 0.03 0.03 0.03 0.03 0.02 0.02 0.03 0.04 0.03 0.03 0.02 0.02 0.02 0.04 0.05 0.04 0.04 0.04 0.05
0.00 0.00 0.00 0.00 0.00 0.00 0.00 0.00 0.00 0.00 0.00 0.00 0.00 0.00 0.00 0.00 0.00 0.00 0.00 0.00 0.00 0.00 0.00 0.00 0.00 0.01 0.01 0.01 0.02 0.02 0.03 0.03 0.04 0.04 0.03 0.02 0.03 0.03 0.04 0.04 0.03 0.02 0.02 0.02 0.04 0.04 0.04 0.04 0.04
0.00 0.00 0.00 0.00 0.00 0.00 0.00 0.00 0.00 0.00 0.00 0.00 0.00 0.00 0.00 0.00 0.00 0.00 0.00 0.00 0.00 0.00 0.00 0.00 0.01 0.01 0.01 0.01 0.01 0.02 0.03 0.03 0.04 0.05 0.05 0.05 0.03 0.03 0.03 0.03 0.04 0.03 0.02 0.02 0.03 0.03 0.03 0.03 0.04
0.00 0.00 0.00 0.00 0.00 0.00 0.00 0.00 0.00 0.00 0.00 0.00 0.00 0.00 0.00 0.00 0.00 0.00 0.00 0.00 0.00 0.00 0.00 0.00 0.01 0.01 0.01 0.02 0.02 0.02 0.02 0.03 0.04 0.06 0.07 0.07 0.05 0.03 0.02 0.03 0.04 0.04 0.04 0.03 0.02 0.03 0.03 0.04 0.04
0.00 0.00 0.00 0.00 0.00 0.00 0.00 0.00 0.00 0.00 0.00 0.00 0.00 0.00 0.00 0.00 0.00 0.00 0.00 0.00 0.00 0.00 0.00 0.00 0.00 0.01 0.01 0.02 0.02 0.03 0.03 0.03 0.03 0.04 0.06 0.06 0.06 0.04 0.02 0.02 0.03 0.04 0.04 0.03 0.02 0.03 0.03 0.04 0.04
0.00 0.00 0.00 0.00 0.00 0.00 0.00 0.00 0.00 0.00 0.00 0.00 0.00 0.00 0.00 0.00 0.00 0.00 0.00 0.00 0.00 0.00 0.00 0.00 0.00 0.01 0.01 0.01 0.02 0.03 0.04 0.05 0.05 0.05 0.05 0.05 0.05 0.05 0.03 0.02 0.02 0.03 0.04 0.04 0.03 0.04 0.04 0.04 0.04
0.00 0.00 0.00 0.00 0.00 0.00 0.00 0.00 0.00 0.00 0.00 0.00 0.00 0.00 0.00 0.00 0.00 0.00 0.00 0.00 0.00 0.00 0.00 0.00 0.00 0.00 0.00 0.01 0.02 0.02 0.03 0.04 0.04 0.05 0.05 0.04 0.04 0.04 0.03 0.02 0.02 0.02 0.03 0.04 0.04 0.04 0.04 0.04 0.03
0.00 0.00 0.00 0.00 0.00 0.00 0.00 0.00 0.00 0.00 0.00 0.00 0.00 0.00 0.00 0.00 0.01 0.01 0.00 0.00 0.01 0.01 0.01 0.01 0.01 0.00 0.00 0.00 0.01 0.02 0.02 0.03 0.04 0.04 0.04 0.04 0.03 0.03 0.03 0.03 0.02 0.02 0.02 0.03 0.03 0.04 0.03 0.03 0.03
0.00 0.00 0.00 0.00 0.00 0.00 0.00 0.00 0.00 0.00 0.00 0.00 0.00 0.00 0.00 0.00 0.01 0.01 0.00 0.00 0.00 0.00 0.01 0.01 0.01 0.01 0.01 0.01 0.01 0.01 0.02 0.03 0.04 0.05 0.04 0.03 0.03 0.03 0.02 0.02 0.02 0.01 0.01 0.02 0.02 0.02 0.02 0.03 0.03
0.00 0.00 0.00 0.00 0.00 0.00 0.00 0.00 0.00 0.00 0.00 0.00 0.00 0.00 0.00 0.00 0.00 0.00 0.00 0.01 0.00 0.00 0.00 0.01 0.02 0.01 0.01 0.01 0.01 0.01 0.01 0.02 0.03 0.05 0.05 0.03 0.02 0.03 0.03 0.03 0.02 0.02 0.01 0.01 0.02 0.02 0.02 0.03 0.03
0.00 0.00 0.00 0.00 0.00 0.00 0.00 0.00 0.00 0.00 0.00 0.00 0.00 0.00 0.00 0.00 0.00 0.00 0.00 0.00 0.00 0.00 0.00 0.01 0.02 0.01 0.01 0.01 0.01 0.01 0.01 0.02 0.03 0.04 0.05 0.04 0.03 0.03 0.03 0.03 0.02 0.02 0.02 0.02 0.02 0.02 0.02 0.03 0.04
0.00 0.00 0.00 0.00 0.00 0.00 0.00 0.00 0.00 0.00 0.00 0.00 0.00 0.00 0.00 0.00 0.00 0.00 0.00 0.00 0.00 0.00 0.00 0.00 0.01 0.02 0.01 0.01 0.00 0.00 0.01 0.02 0.03 0.03 0.04 0.05 0.04 0.03 0.03 0.04 0.03 0.02 0.02 0.02 0.02 0.02 0.02 0.03 0.03
0.00 0.00 0.00 0.00 0.00 0.00 0.00 0.00 0.00 0.00 0.00 0.00 0.00 0.00 0.00 0.00 0.00 0.00 0.00 0.00 0.00 0.00 0.00 0.00 0.00 0.01 0.01 0.01 0.01 0.00 0.01 0.01 0.02 0.03 0.04 0.04 0.04 0.04 0.03 0.03 0.03 0.03 0.03 0.03 0.02 0.02 0.02 0.02 0.02
0.01 0.00 0.00 0.00 0.00 0.00 0.00 0.00 0.00 0.00 0.00 0.00 0.00 0.00 0.00 0.00 0.00 0.00 0.00 0.00 0.00 0.00 0.00 0.00 0.00 0.00 0.01 0.01 0.01 0.01 0.01 0.01 0.02 0.02 0.04 0.04 0.03 0.03 0.03 0.03 0.04 0.04 0.04 0.03 0.03 0.03 0.02 0.02 0.02
0.01 0.00 0.00 0.00 0.00 0.00 0.00 0.00 0.00 0.00 0.00 0.00 0.00 0.00 0.00 0.00 0.00 0.00 0.00 0.00 0.00 0.00 0.00 0.00 0.00 0.00 0.01 0.01 0.01 0.01 0.02 0.02 0.02 0.02 0.03 0.04 0.04 0.03 0.03 0.02 0.04 0.05 0.04 0.03 0.03 0.03 0.03 0.02 0.03
0.00 0.00 0.00 0.00 0.00 0.00 0.00 0.00 0.00 0.00 0.00 0.00 0.00 0.00 0.00 0.00 0.00 0.00 0.00 0.00 0.00 0.00 0.00 0.00 0.00 0.00 0.01 0.01 0.01 0.02 0.02 0.02 0.02 0.02 0.02 0.04 0.05 0.05 0.04 0.03 0.04 0.05 0.05 0.04 0.03 0.03 0.03 0.03 0.02
0.01 0.01 0.01 0.00 0.00 0.00 0.00 0.00 0.00 0.00 0.00 0.00 0.00 0.00 0.00 0.00 0.00 0.00 0.00 0.00 0.00 0.00 0.00 0.00 0.00 0.00 0.00 0.01 0.01 0.02 0.02 0.03 0.03 0.03 0.02 0.04 0.06 0.06 0.07 0.06 0.06 0.06 0.06 0.06 0.05 0.04 0.04 0.03 0.03
0.01 0.01 0.01 0.01 0.01 0.00 0.00 0.00 0.00 0.00 0.00 0.00 0.00 0.00 0.00 0.00 0.00 0.00 0.00 0.00 0.00 0.01 0.00 0.00 0.00 0.00 0.00 0.01 0.01 0.02 0.03 0.04 0.04 0.04 0.04 0.03 0.05 0.07 0.08 0.08 0.08 0.07 0.07 0.07 0.07 0.06 0.04 0.03 0.03
0.01 0.01 0.00 0.01 0.01 0.01 0.00 0.00 0.00 0.00 0.00 0.00 0.00 0.00 0.00 0.00 0.00 0.00 0.00 0.00 0.00 0.01 0.00 0.00 0.00 0.00 0.01 0.01 0.01 0.01 0.02 0.02 0.03 0.03 0.03 0.03 0.04 0.05 0.07 0.08 0.08 0.07 0.06 0.07 0.07 0.07 0.06 0.05 0.04
0.00 0.01 0.01 0.01 0.02 0.02 0.01 0.01 0.00 0.00 0.00 0.00 0.00 0.00 0.00 0.00 0.00 0.00 0.00 0.00 0.00 0.00 0.00 0.00 0.00 0.01 0.01 0.02 0.01 0.01 0.01 0.01 0.02 0.03 0.03 0.03 0.03 0.04 0.05 0.07 0.08 0.08 0.05 0.05 0.06 0.07 0.07 0.06 0.05
0.01 0.01 0.02 0.03 0.04 0.04 0.01 0.01 0.00 0.00 0.00 0.00 0.00 0.00 0.00 0.00 0.00 0.00 0.00 0.00 0.00 0.00 0.00 0.01 0.01 0.01 0.01 0.02 0.02 0.02 0.01 0.02 0.02 0.02 0.03 0.03 0.03 0.04 0.05 0.06 0.08 0.08 0.06 0.04 0.05 0.05 0.06 0.05 0.05
0.02 0.04 0.06 0.05 0.05 0.03 0.01 0.01 0.01 0.00 0.00 0.00 0.00 0.00 0.00 0.00 0.00 0.00 0.00 0.00 0.00 0.00 0.00 0.01 0.01 0.01 0.01 0.01 0.02 0.02 0.02 0.02 0.02 0.02 0.02 0.02 0.02 0.03 0.04 0.06 0.07 0.08 0.08 0.06 0.04 0.04 0.05 0.05 0.05
0.02 0.03 0.04 0.03 0.02 0.01 0.01 0.01 0.00 0.00 0.00 0.00 0.00 0.00 0.00 0.00 0.00 0.00 0.00 0.01 0.01 0.01 0.00 0.01 0.01 0.01 0.02 0.02 0.03 0.03 0.03 0.03 0.02 0.02 0.03 0.03 0.04 0.04 0.04 0.05 0.06 0.06 0.07 0.06 0.05 0.05 0.04 0.04 0.04
0.01 0.02 0.02 0.03 0.03 0.01 0.01 0.00 0.00 0.00 0.00 0.00 0.00 0.00 0.00 0.00 0.00 0.00 0.00 0.01 0.01 0.01 0.01 0.01 0.02 0.03 0.04 0.03 0.04 0.04 0.03 0.03 0.03 0.01 0.01 0.02 0.02 0.03 0.04 0.05 0.05 0.05 0.06 0.06 0.06 0.05 0.04 0.04 0.04
0.01 0.02 0.03 0.06 0.05 0.03 0.01 0.00 0.00 0.00 0.00 0.00 0.00 0.00 0.00 0.00 0.01 0.01 0.01 0.01 0.02 0.01 0.01 0.01 0.03 0.03 0.02 0.02 0.02 0.03 0.03 0.03 0.03 0.02 0.02 0.02 0.02 0.02 0.02 0.03 0.04 0.04 0.04 0.05 0.06 0.06 0.04 0.04 0.05
0.02 0.03 0.04 0.04 0.04 0.02 0.01 0.00 0.00 0.00 0.00 0.00 0.00 0.00 0.00 0.00 0.00 0.01 0.01 0.02 0.03 0.01 0.01 0.01 0.01 0.01 0.01 0.01 0.01 0.01 0.03 0.03 0.04 0.03 0.03 0.03 0.02 0.02 0.02 0.02 0.03 0.04 0.04 0.03 0.04 0.05 0.05 0.04 0.04
0.03 0.04 0.04 0.05 0.04 0.02 0.01 0.00 0.00 0.00 0.00 0.00 0.00 0.00 0.00 0.00 0.00 0.01 0.01 0.02 0.04 0.02 0.01 0.01 0.01 0.01 0.01 0.01 0.01 0.01 0.01 0.02 0.03 0.04 0.04 0.03 0.03 0.02 0.01 0.01 0.02 0.03 0.03 0.03 0.04 0.04 0.04 0.04 0.04
MSLP
1010.93 1011.37 1011.95 1012.56 1013.10 1013.49 1013.65 1013.56 1013.24 1012.73 1012.12 1011.47 1010.86 1010.31 1009.84 1009.40 1008.98 1008.55 1008.09 1007.64 1007.24 1006.94 1006.80 1006.85 1007.10 1007.53 1008.07 1008.65 1009.22 1009.71 1010.11 1010.43 1010.69 1010.93 1011.20 1011.50 1011.83 1012.18 1012.51 1012.80 1013.02 1013.19 1013.32 1013.43 1013.57 1013.75 1013.98 1014.27 1014.59
1011.22 1011.74 1012.34 1012.94 1013.42 1013.69 1013.71 1013.45 1012.95 1012.28 1011.53 1010.78 1010.11 1009.53 1009.06 1008.66 1008.30 1007.95 1007.58 1007.22 1006.90 1006.68 1006.61 1006.72 1007.02 1007.48 1008.05 1008.66 1009.25 1009.77 1010.19 1010.53 1010.81 1011.06 1011.32 1011.60 1011.91 1012.24 1012.56 1012.84 1013.09 1013.29 1013.47 1013.64 1013.83 1014.05 1014.32 1014.62 1014.94
1011.61 1012.17 1012.76 1013.30 1013.69 1013.83 1013.70 1013.30 1012.67 1011.89 1011.05 1010.24 1009.53 1008.94 1008.47 1008.09 1007.76 1007.45 1007.14 1006.85 1006.60 1006.45 1006.44 1006.61 1006.96 1007.45 1008.05 1008.68 1009.28 1009.81 1010.25 1010.60 1010.88 1011.12 1011.37 1011.63 1011.92 1012.22 1012.53 1012.82 1013.09 1013.34 1013.57 1013.81 1014.06 1014.34 1014.65 1014.98 1015.31
1012.09 1012.64 1013.19 1013.64 1013.90 1013.91 1013.65 1013.14 1012.42 1011.58 1010.72 1009.90 1009.19 1008.61 1008.15 1007.77 1007.45 1007.16 1006.88 1006.62 1006.42 1006.32 1006.37 1006.58 1006.95 1007.47 1008.08 1008.71 1009.31 1009.84 1010.28 1010.62 1010.90 1011.14 1011.37 1011.62 1011.89 1012.19 1012.49 1012.80 1013.10 1013.39 1013.67 1013.97 1014.28 1014.61 1014.97 1015.33 1015.68
1012.60 1013.12 1013.58 1013.90 1014.03 1013.91 1013.54 1012.96 1012.21 1011.38 1010.55 1009.78 1009.11 1008.56 1008.11 1007.74 1007.42 1007.11 1006.83 1006.58 1006.41 1006.33 1006.40 1006.64 1007.03 1007.54 1008.13 1008.75 1009.33 1009.84 1010.27 1010.61 1010.89 1011.14 1011.38 1011.63 1011.91 1012.21 1012.52 1012.84 1013.17 1013.49 1013.81 1014.15 1014.50 1014.88 1015.26 1015.65 1016.02
1013.10 1013.55 1013.89 1014.08 1014.06 1013.82 1013.37 1012.76 1012.03 1011.27 1010.52 1009.84 1009.25 1008.75 1008.33 1007.97 1007.63 1007.31 1007.00 1006.74 1006.56 1006.49 1006.56 1006.78 1007.16 1007.64 1008.20 1008.77 1009.32 1009.80 1010.22 1010.57 1010.87 1011.14 1011.41 1011.70 1012.00 1012.33 1012.66 1013.00 1013.34 1013.68 1014.02 1014.37 1014.74 1015.13 1015.52 1015.92 1016.29
1013.52 1013.88 1014.10 1014.14 1013.98 1013.64 1013.14 1012.53 1011.86 1011.19 1010.56 1010.00 1009.52 1009.10 1008.72 1008.36 1008.01 1007.66 1007.33 1007.05 1006.84 1006.74 1006.79 1006.98 1007.31 1007.74 1008.24 1008.76 1009.25 1009.72 1010.13 1010.49 1010.83 1011.16 1011.48 1011.82 1012.18 1012.54 1012.90 1013.26 1013.61 1013.95 1014.29 1014.63 1014.99 1015.36 1015.75 1016.13 1016.49
1013.84 1014.09 1014.18 1014.08 1013.80 1013.37 1012.84 1012.26 1011.67 1011.12 1010.62 1010.19 1009.82 1009.47 1009.14 1008.80 1008.45 1008.08 1007.72 1007.40 1007.16 1007.03 1007.04 1007.18 1007.45 1007.81 1008.23 1008.69 1009.14 1009.58 1009.99 1010.39 1010.78 1011.17 1011.57 1011.98 1012.40 1012.81 1013.20 1013.58 1013.93 1014.26 1014.58 1014.90 1015.23 1015.58 1015.93 1016.28 1016.63
1014.03 1014.18 1014.14 1013.91 1013.54 1013.06 1012.52 1011.97 1011.46 1011.02 1010.65 1010.33 1010.05 1009.78 1009.49 1009.17 1008.81 1008.43 1008.05 1007.71 1007.44 1007.28 1007.24 1007.33 1007.53 1007.82 1008.17 1008.56 1008.97 1009.39 1009.81 1010.24 1010.69 1011.15 1011.63 1012.12 1012.59 1013.05 1013.48 1013.87 1014.22 1014.55 1014.85 1015.15 1015.45 1015.76 1016.08 1016.41 1016.73
1014.09 1014.14 1013.99 1013.68 1013.23 1012.71 1012.18 1011.68 1011.24 1010.88 1010.60 1010.37 1010.15 1009.93 1009.67 1009.36 1009.01 1008.62 1008.24 1007.89 1007.62 1007.44 1007.36 1007.40 1007.54 1007.76 1008.05 1008.39 1008.76 1009.16 1009.59 1010.06 1010.56 1011.09 1011.63 1012.17 1012.70 1013.20 1013.66 1014.07 1014.43 1014.76 1015.06 1015.35 1015.63 1015.92 1016.22 1016.52 1016.82
1014.02 1013.98 1013.76 1013.38 1012.90 1012.38 1011.86 1011.39 1011.00 1010.70 1010.46 1010.26 1010.07 1009.86 1009.60 1009.30 1008.95 1008.58 1008.22 1007.89 1007.62 1007.44 1007.36 1007.36 1007.46 1007.64 1007.88 1008.17 1008.51 1008.91 1009.35 1009.84 1010.38 1010.95 1011.53 1012.12 1012.68 1013.21 1013.70 1014.13 1014.51 1014.86 1015.18 1015.48 1015.77 1016.07 1016.36 1016.64 1016.92
1013.80 1013.70 1013.44 1013.04 1012.55 1012.04 1011.55 1011.11 1010.74 1010.43 1010.19 1009.97 1009.75 1009.52 1009.25 1008.95 1008.61 1008.27 1007.94 1007.65 1007.42 1007.27 1007.20 1007.20 1007.28 1007.43 1007.64 1007.91 1008.24 1008.63 1009.08 1009.58 1010.14 1010.73 1011.34 1011.94 1012.52 1013.07 1013.57 1014.03 1014.45 1014.84 1015.20 1015.55 1015.88 1016.20 1016.51 1016.79 1017.06
1013.45 1013.30 1013.02 1012.62 1012.17 1011.69 1011.22 1010.79 1010.40 1010.06 1009.75 1009.47 1009.19 1008.90 1008.59 1008.28 1007.96 1007.66 1007.39 1007.16 1007.00 1006.89 1006.86 1006.88 1006.97 1007.12 1007.32 1007.59 1007.92 1008.31 1008.77 1009.29 1009.86 1010.45 1011.06 1011.66 1012.25 1012.80 1013.32 1013.81 1014.28 1014.73 1015.15 1015.57 1015.96 1016.32 1016.66 1016.95 1017.21
1012.94 1012.77 1012.49 1012.13 1011.71 1011.27 1010.82 1010.37 1009.94 1009.52 1009.12 1008.73 1008.35 1007.98 1007.62 1007.29 1007.00 1006.75 1006.55 1006.41 1006.32 1006.29 1006.31 1006.38 1006.50 1006.67 1006.89 1007.17 1007.52 1007.94 1008.41 1008.95 1009.52 1010.11 1010.72 1011.31 1011.89 1012.45 1012.99 1013.52 1014.04 1014.55 1015.05 1015.54 1016.00 1016.42 1016.79 1017.10 1017.35
1012.30 1012.11 1011.85 1011.53 1011.16 1010.75 1010.30 1009.82 1009.32 1008.79 1008.26 1007.74 1007.24 1006.78 1006.37 1006.03 1005.77 1005.58 1005.46 1005.41 1005.41 1005.46 1005.54 1005.67 1005.84 1006.05 1006.31 1006.63 1007.01 1007.46 1007.97 1008.53 1009.11 1009.72 1010.32 1010.92 1011.50 1012.06 1012.63 1013.19 1013.76 1014.33 1014.90 1015.46 1015.98 1016.45 1016.85 1017.17 1017.41
1011.57 1011.37 1011.13 1010.85 1010.52 1010.12 1009.65 1009.11 1008.51 1007.85 1007.18 1006.51 1005.89 1005.35 1004.89 1004.55 1004.32 1004.20 1004.16 1004.20 1004.29 1004.42 1004.58 1004.76 1004.98 1005.24 1005.55 1005.93 1006.36 1006.86 1007.41 1008.01 1008.63 1009.25 1009.87 1010.48 1011.07 1011.66 1012.24 1012.84 1013.46 1014.08 1014.71 1015.32 1015.89 1016.40 1016.82 1017.15 1017.38
1010.81 1010.60 1010.38 1010.12 1009.81 1009.40 1008.89 1008.27 1007.54 1006.75 1005.92 1005.12 1004.39 1003.76 1003.28 1002.94 1002.75 1002.69 1002.73 1002.85 1003.02 1003.22 1003.44 1003.69 1003.96 1004.27 1004.63 1005.06 1005.55 1006.11 1006.72 1007.36 1008.03 1008.69 1009.34 1009.98 1010.60 1011.21 1011.83 1012.46 1013.11 1013.78 1014.44 1015.09 1015.69 1016.22 1016.66 1017.00 1017.23
1010.07 1009.87 1009.67 1009.42 1009.09 1008.65 1008.07 1007.34 1006.48 1005.54 1004.58 1003.65 1002.82 1002.14 1001.63 1001.31 1001.17 1001.17 1001.28 1001.47 1001.71 1001.96 1002.23 1002.51 1002.82 1003.18 1003.58 1004.06 1004.61 1005.22 1005.88 1006.58 1007.30 1008.01 1008.71 1009.39 1010.05 1010.70 1011.36 1012.02 1012.70 1013.39 1014.08 1014.74 1015.36 1015.91 1016.37 1016.72 1016.97
1009.43 1009.25 1009.05 1008.80 1008.44 1007.94 1007.26 1006.41 1005.42 1004.35 1003.25 1002.23 1001.33 1000.61 1000.10 999.80 999.70 999.76 999.93 1000.17 1000.44 1000.73 1001.03 1001.34 1001.68 1002.06 1002.50 1003.01 1003.59 1004.24 1004.95 1005.69 1006.45 1007.21 1007.95 1008.68 1009.39 1010.08 1010.78 1011.48 1012.18 1012.89 1013.60 1014.27 1014.91 1015.48 1015.96 1016.34 1016.62
1008.92 1008.76 1008.58 1008.31 1007.91 1007.33 1006.55 1005.58 1004.46 1003.26 1002.07 1000.97 1000.02 999.29 998.79 998.53 998.47 998.56 998.77 999.04 999.34 999.64 999.95 1000.27 1000.62 1001.01 1001.46 1001.99 1002.58 1003.25 1003.98 1004.74 1005.52 1006.31 1007.09 1007.86 1008.61 1009.35 1010.09 1010.82 1011.55 1012.28 1013.00 1013.69 1014.34 1014.94 1015.45 1015.88 1016.21
1008.52 1008.40 1008.24 1007.96 1007.51 1006.85 1005.97 1004.89 1003.67 1002.38 1001.11 999.96 999.00 998.28 997.80 997.56 997.53 997.66 997.88 998.16 998.46 998.77 999.07 999.38 999.73 1000.12 1000.56 1001.08 1001.67 1002.32 1003.03 1003.79 1004.56 1005.36 1006.15 1006.95 1007.74 1008.52 1009.29 1010.06 1010.83 1011.58 1012.32 1013.03 1013.71 1014.33 1014.90 1015.38 1015.78
1008.17 1008.11 1007.97 1007.69 1007.20 1006.48 1005.52 1004.36 1003.06 1001.71 1000.41 999.25 998.30 997.59 997.15 996.93 996.92 997.05 997.27 997.54 997.82 998.11 998.40 998.70 999.04 999.41 999.85 1000.34 1000.90 1001.52 1002.19 1002.90 1003.65 1004.42 1005.21 1006.01 1006.82 1007.64 1008.45 1009.26 1010.06 1010.84 1011.60 1012.34 1013.04 1013.71 1014.31 1014.86 1015.32
1007.78 1007.79 1007.68 1007.40 1006.90 1006.14 1005.13 1003.93 1002.60 1001.23 999.94 998.80 997.88 997.20 996.78 996.58 996.56 996.68 996.87 997.11 997.36 997.62 997.89 998.18 998.51 998.88 999.30 999.77 1000.29 1000.86 1001.47 1002.13 1002.82 1003.55 1004.32 1005.12 1005.94 1006.78 1007.63 1008.47 1009.30 1010.11 1010.90 1011.66 1012.39 1013.08 1013.72 1014.31 1014.83
1007.29 1007.35 1007.28 1007.02 1006.51 1005.75 1004.73 1003.53 1002.21 1000.88 999.63 998.53 997.65 997.01 996.61 996.40 996.37 996.44 996.58 996.77 996.97 997.20 997.45 997.73 998.05 998.42 998.83 999.29 999.78 1000.31 1000.87 1001.47 1002.11 1002.80 1003.53 1004.32 1005.15 1006.01 1006.88 1007.76 1008.62 1009.45 1010.25 1011.02 1011.75 1012.45 1013.11 1013.71 1014.26
1006.65 1006.76 1006.72 1006.48 1005.99 1005.25 1004.26 1003.10 1001.84 1000.58 999.39 998.37 997.54 996.93 996.53 996.30 996.22 996.22 996.29 996.40 996.55 996.73 996.95 997.23 997.56 997.93 998.36 998.81 999.30 999.80 1000.33 1000.89 1001.49 1002.15 1002.86 1003.64 1004.48 1005.35 1006.25 1007.14 1008.02 1008.86 1009.66 1010.42 1011.13 1011.81 1012.45 1013.04 1013.58
1005.89 1006.01 1005.99 1005.77 1005.32 1004.62 1003.70 1002.62 1001.45 1000.28 999.18 998.23 997.46 996.88 996.46 996.19 996.03 995.95 995.92 995.94 996.01 996.14 996.33 996.59 996.93 997.33 997.78 998.26 998.75 999.26 999.78 1000.33 1000.92 1001.57 1002.29 1003.07 1003.91 1004.80 1005.71 1006.62 1007.49 1008.32 1009.10 1009.83 1010.50 1011.13 1011.72 1012.28 1012.78
1005.07 1005.18 1005.17 1004.97 1004.56 1003.92 1003.09 1002.10 1001.04 999.97 998.98 998.11 997.38 996.80 996.36 996.03 995.78 995.59 995.45 995.36 995.34 995.40 995.56 995.81 996.15 996.58 997.06 997.57 998.10 998.64 999.19 999.75 1000.36 1001.03 1001.76 1002.56 1003.42 1004.32 1005.23 1006.13 1007.00 1007.80 1008.54 1009.21 1009.83 1010.40 1010.93 1011.43 1011.89
1004.33 1004.41 1004.38 1004.20 1003.82 1003.25 1002.50 1001.61 1000.66 999.70 998.80 998.00 997.30 996.72 996.24 995.83 995.48 995.17 994.91 994.72 994.60 994.59 994.69 994.92 995.26 995.70 996.21 996.77 997.34 997.93 998.52 999.13 999.77 1000.47 1001.23 1002.06 1002.93 1003.84 1004.75 1005.64 1006.47 1007.24 1007.93 1008.54 1009.10 1009.60 1010.08 1010.53 1010.96
1003.80 1003.82 1003.77 1003.58 1003.24 1002.72 1002.05 1001.26 1000.40 999.54 998.72 997.96 997.28 996.69 996.15 995.66 995.21 994.80 994.43 994.12 993.91 993.82 993.87 994.06 994.39 994.83 995.36 995.94 996.55 997.18 997.82 998.48 999.17 999.90 1000.70 1001.54 1002.43 1003.33 1004.23 1005.09 1005.89 1006.61 1007.25 1007.82 1008.32 1008.78 1009.22 1009.65 1010.07
1003.57 1003.52 1003.43 1003.24 1002.91 1002.43 1001.82 1001.11 1000.33 999.54 998.77 998.05 997.38 996.75 996.17 995.61 995.07 994.57 994.11 993.72 993.43 993.27 993.26 993.41 993.71 994.13 994.65 995.23 995.86 996.51 997.18 997.87 998.60 999.36 1000.17 1001.03 1001.91 1002.80 1003.67 1004.50 1005.25 1005.93 1006.53 1007.07 1007.54 1007.99 1008.43 1008.87 1009.32
Thickness
5712 5714 5714 5708 5692 5679 5683 5695 5704 5711 5718 5726 5730 5730 5726 5724 5724 5723 5737 5746 5748 5749 5750 5751 5751 5751 5751 5751 5750 5750 5750 5750 5749 5749 5749 5749 5749 5748 5748 5747 5747 5747 5746 5745 5744 5743 5742 5740 5739
5707 5709 5704 5693 5678 5671 5682 5695 5701 5711 5720 5724 5726 5725 5723 5723 5729 5731 5735 5741 5743 5745 5746 5747 5747 5747 5747 5747 5746 5746 5746 5746 5745 5745 5745 5745 5745 5745 5744 5744 5744 5743 5743 5742 5741 5740 5739 5737 5736
5703 5702 5691 5679 5673 5674 5688 5700 5703 5711 5717 5719 5718 5719 5719 5721 5726 5728 5733 5736 5738 5740 5741 5742 5742 5742 5742 5742 5742 5741 5741 5741 5741 5741 5741 5741 5741 5741 5741 5740 5740 5740 5739 5738 5738 5736 5735 5734 5733
5695 5688 5680 5672 5673 5680 5689 5700 5703 5706 5712 5714 5713 5710 5715 5720 5723 5726 5730 5732 5733 5734 5735 5736 5737 5737 5737 5737 5737 5737 5737 5737 5737 5737 5737 5737 5737 5737 5737 5736 5736 5735 5735 5734 5734 5733 5732 5730 5729
5685 5675 5668 5664 5671 5681 5687 5694 5699 5701 5703 5706 5707 5704 5707 5716 5720 5722 5724 5726 5726 5727 5729 5730 5730 5731 5731 5732 5732 5732 5732 5732 5732 5732 5732 5733 5733 5733 5732 5732 5731 5731 5731 5730 5730 5729 5728 5727 5726
5670 5664 5657 5658 5668 5678 5685 5691 5695 5696 5697 5700 5700 5698 5703 5711 5714 5715 5718 5719 5720 5721 5722 5723 5724 5725 5726 5726 5726 5726 5727 5727 5727 5727 5727 5728 5728 5728 5728 5727 5727 5726 5726 5726 5725 5725 5724 5723 5722
5662 5656 5655 5660 5664 5673 5683 5688 5689 5690 5691 5694 5697 5693 5698 5704 5708 5710 5711 5712 5713 5714 5715 5717 5718 5719 5720 5720 5721 5721 5721 5722 5722 5722 5722 5722 5722 5722 5722 5722 5722 5722 5721 5721 5721 5721 5720 5719 5718
5661 5653 5654 5655 5660 5670 5679 5684 5687 5687 5688 5692 5693 5689 5691 5699 5702 5703 5704 5705 5706 5707 5708 5710 5711 5712 5713 5714 5715 5715 5716 5716 5716 5716 5716 5717 5716 5717 5717 5717 5717 5716 5716 5716 5716 5716 5715 5714 5713
5658 5646 5647 5654 5659 5667 5674 5677 5680 5683 5683 5685 5688 5690 5694 5696 5696 5696 5696 5696 5698 5700 5701 5703 5704 5706 5707 5708 5708 5709 5709 5710 5710 5711 5711 5711 5710 5711 5711 5711 5711 5711 5711 5711 5711 5711 5710 5709 5708
5648 5641 5651 5659 5662 5665 5668 5670 5672 5675 5675 5677 5680 5684 5687 5688 5688 5688 5688 5689 5691 5693 5694 5696 5697 5698 5700 5701 5702 5702 5703 5703 5704 5705 5705 5705 5704 5704 5704 5705 5705 5705 5705 5704 5705 5705 5704 5703 5702
5645 5644 5651 5655 5659 5661 5662 5664 5667 5667 5667 5671 5674 5676 5678 5679 5680 5681 5682 5683 5685 5686 5688 5689 5690 5691 5692 5693 5694 5695 5696 5697 5697 5698 5698 5698 5698 5698 5698 5698 5698 5698 5698 5697 5698 5697 5697 5696 5695
5638 5643 5646 5650 5654 5655 5656 5658 5659 5661 5667 5672 5672 5673 5673 5672 5672 5674 5675 5677 5678 5679 5681 5683 5684 5684 5685 5686 5687 5687 5688 5689 5690 5690 5691 5691 5691 5690 5691 5690 5690 5690 5690 5690 5690 5690 5689 5689 5689
5633 5638 5642 5644 5646 5647 5649 5650 5653 5659 5663 5664 5664 5665 5666 5666 5667 5668 5669 5670 5671 5673 5675 5676 5677 5677 5678 5678 5678 5679 5680 5681 5682 5682 5683 5684 5683 5683 5683 5683 5683 5683 5683 5682 5682 5682 5682 5682 5682
5630 5631 5634 5637 5639 5642 5643 5645 5646 5659 5657 5657 5657 5658 5660 5660 5662 5662 5663 5664 5665 5666 5668 5669 5669 5670 5671 5671 5670 5671 5672 5672 5673 5674 5675 5676 5676 5676 5675 5675 5675 5675 5675 5675 5675 5674 5674 5674 5674
5623 5623 5626 5631 5632 5635 5635 5639 5645 5655 5651 5650 5651 5653 5654 5655 5656 5657 5658 5659 5660 5660 5661 5661 5662 5663 5663 5663 5663 5663 5663 5664 5664 5665 5666 5667 5668 5668 5667 5667 5667 5667 5667 5667 5666 5666 5666 5666 5666
5614 5612 5614 5626 5627 5628 5626 5634 5648 5647 5644 5644 5645 5645 5647 5650 5651 5652 5653 5654 5654 5654 5653 5653 5655 5655 5655 5655 5655 5654 5655 5655 5656 5657 5657 5658 5659 5659 5659 5659 5659 5658 5658 5658 5657 5657 5656 5656 5656
5599 5598 5606 5615 5620 5620 5618 5626 5639 5638 5638 5638 5638 5639 5641 5643 5645 5646 5647 5646 5646 5646 5646 5645 5646 5646 5646 5646 5646 5646 5646 5646 5646 5647 5648 5649 5650 5650 5650 5650 5650 5649 5649 5648 5648 5647 5646 5646 5646
5592 5590 5598 5603 5611 5610 5610 5617 5628 5631 5631 5631 5632 5633 5634 5637 5640 5641 5640 5639 5639 5638 5638 5637 5637 5637 5637 5636 5636 5636 5636 5636 5637 5637 5638 5639 5640 5640 5640 5640 5639 5639 5638 5638 5637 5637 5636 5636 5636
5588 5587 5591 5596 5601 5601 5602 5611 5622 5626 5626 5626 5626 5627 5628 5631 5634 5634 5633 5631 5630 5629 5629 5629 5628 5628 5627 5627 5626 5625 5625 5626 5627 5627 5629 5630 5630 5630 5629 5629 5629 5628 5628 5627 5627 5626 5625 5624 5624
5579 5579 5582 5586 5591 5593 5593 5603 5617 5622 5624 5626 5627 5626 5626 5626 5626 5626 5625 5623 5622 5622 5621 5620 5620 5619 5619 5618 5617 5616 5616 5616 5617 5618 5619 5620 5620 5620 5620 5619 5618 5618 5617 5616 5615 5614 5613 5613 5612
5569 5570 5574 5576 5579 5580 5581 5598 5612 5620 5621 5622 5623 5623 5623 5623 5621 5619 5617 5615 5614 5614 5613 5614 5611 5610 5610 5609 5608 5607 5606 5606 5606 5607 5608 5609 5609 5609 5609 5609 5608 5607 5606 5605 5604 5603 5602 5601 5600
5562 5567 5567 5567 5563 5560 5569 5574 5600 5608 5610 5615 5616 5614 5615 5617 5615 5613 5611 5609 5607 5606 5605 5603 5602 5601 5600 5600 5599 5599 5597 5596 5597 5597 5598 5599 5599 5599 5599 5598 5597 5596 5595 5594 5594 5593 5591 5590 5588
5555 5557 5555 5554 5549 5546 5553 5555 5586 5596 5602 5610 5612 5609 5608 5608 5606 5606 5605 5603 5601 5598 5595 5594 5592 5591 5591 5591 5591 5590 5588 5588 5588 5588 5588 5588 5588 5588 5587 5587 5586 5585 5584 5583 5582 5580 5579 5578 5577
5544 5541 5535 5529 5530 5538 5549 5546 5572 5583 5599 5605 5606 5602 5601 5599 5598 5597 5596 5594 5591 5588 5586 5584 5583 5582 5582 5582 5581 5581 5580 5579 5578 5578 5577 5577 5577 5577 5576 5575 5574 5573 5572 5571 5569 5568 5566 5565 5564
5536 5530 5524 5524 5517 5531 5541 5541 5567 5585 5592 5596 5597 5594 5591 5589 5588 5587 5585 5584 5582 5579 5577 5575 5574 5573 5572 5572 5572 5571 5571 5570 5569 5568 5567 5566 5565 5565 5564 5563 5562 5561 5560 5559 5557 5555 5554 5552 5551
5525 5528 5524 5521 5521 5525 5527 5533 5563 5577 5580 5581 5582 5582 5580 5579 5577 5577 5576 5574 5572 5569 5567 5566 5564 5563 5563 5562 5562 5562 5561 5560 5560 5558 5557 5555 5554 5554 5553 5552 5551 5550 5548 5546 5544 5542 5541 5540 5539
5516 5515 5520 5505 5500 5507 5519 5528 5549 5569 5569 5569 5568 5568 5568 5568 5567 5566 5565 5563 5561 5559 5557 5556 5555 5554 5553 5553 5552 5552 5551 5550 5549 5548 5547 5545 5544 5543 5542 5541 5540 5538 5536 5534 5531 5530 5529 5528 5527
5515 5509 5501 5500 5504 5511 5520 5523 5540 5556 5559 5558 5556 5555 5556 5557 5556 5555 5554 5552 5551 5549 5547 5546 5545 5544 5543 5542 5542 5542 5541 5539 5539 5538 5536 5535 5534 5533 5531 5530 5528 5526 5524 5521 5519 5518 5518 5516 5516
5498 5500 5499 5492 5492 5497 5507 5528 5542 5544 5547 5545 5544 5544 5545 5544 5544 5543 5542 5541 5539 5538 5537 5536 5535 5534 5533 5532 5531 5531 5530 5529 5528 5527 5526 5525 5523 5522 5520 5518 5516 5514 5512 5510 5508 5508 5507 5506 5506
5492 5492 5489 5490 5483 5475 5483 5516 5540 5533 5532 5531 5530 5533 5534 5534 5533 5532 5531 5529 5528 5527 5527 5526 5525 5524 5523 5523 5522 5521 5520 5518 5517 5516 5515 5514 5512 5511 5509 5507 5504 5503 5501 5499 5498 5497 5497 5496 5496